�������l�o���
Date,Time,MP-1(��Sv/h),MP-2(��Sv/h),MP-3(��Sv/h),MP-4(��Sv/h),MP-5(��Sv/h),MP-6(��Sv/h),MP-7(��Sv/h),MP-8(��Sv/h),����,����(m/s),���J
2018/10/12,00:00,0.765,1.140,0.813,1.441,1.031,0.455,0.796,0.753,�k�k��,5.5,�L
2018/10/12,00:10,0.764,1.141,0.813,1.440,1.034,0.456,0.797,0.754,�k�k��,4.3,�L
2018/10/12,00:20,0.765,1.139,0.813,1.439,1.028,0.455,0.794,0.753,�k�k��,4.0,�L
2018/10/12,00:30,0.766,1.137,0.811,1.437,1.030,0.455,0.793,0.754,�k�k��,3.9,�L
2018/10/12,00:40,0.767,1.140,0.811,1.436,1.033,0.456,0.795,0.752,�k,2.8,�L
2018/10/12,00:50,0.767,1.139,0.811,1.435,1.032,0.456,0.794,0.752,�k�k��,1.7,�L
2018/10/12,01:00,0.767,1.143,0.811,1.434,1.029,0.456,0.794,0.754,�k,4.5,�L
2018/10/12,01:10,0.765,1.141,0.812,1.435,1.031,0.456,0.794,0.752,�k,5.0,�L
2018/10/12,01:20,0.766,1.140,0.811,1.435,1.030,0.457,0.796,0.751,�k,4.8,��
2018/10/12,01:30,0.765,1.142,0.813,1.435,1.029,0.455,0.794,0.752,�k,4.7,��
2018/10/12,01:40,0.766,1.141,0.812,1.435,1.031,0.456,0.794,0.752,�k�k��,3.8,��
2018/10/12,01:50,0.766,1.141,0.811,1.433,1.030,0.454,0.792,0.752,�k,3.5,�L
2018/10/12,02:00,0.768,1.141,0.809,1.431,1.030,0.456,0.794,0.754,�k,3.2,�L
2018/10/12,02:10,0.766,1.143,0.813,1.433,1.031,0.455,0.794,0.753,�k�k��,2.8,�L
2018/10/12,02:20,0.766,1.141,0.810,1.434,1.030,0.455,0.792,0.753,�k�k��,2.9,�L
2018/10/12,02:30,0.765,1.144,0.810,1.435,1.033,0.454,0.794,0.753,�k��,2.0,�L
2018/10/12,02:40,0.766,1.143,0.810,1.432,1.031,0.453,0.791,0.751,�k��,1.7,�L
2018/10/12,02:50,0.764,1.142,0.809,1.432,1.030,0.456,0.794,0.752,�k��,3.2,�L
2018/10/12,03:00,0.764,1.139,0.812,1.433,1.029,0.456,0.795,0.754,�k��,3.2,�L
2018/10/12,03:10,0.765,1.137,0.810,1.434,1.032,0.456,0.794,0.753,�k�k��,3.7,�L
2018/10/12,03:20,0.765,1.141,0.811,1.433,1.032,0.455,0.796,0.753,�k�k��,4.0,�L
2018/10/12,03:30,0.765,1.141,0.809,1.432,1.031,0.456,0.795,0.756,�k�k��,4.0,��
2018/10/12,03:40,0.766,1.140,0.812,1.431,1.032,0.456,0.795,0.754,�k�k��,2.0,�L
2018/10/12,03:50,0.768,1.141,0.810,1.436,1.029,0.455,0.795,0.754,�k�k��,4.0,�L
2018/10/12,04:00,0.767,1.140,0.808,1.435,1.031,0.454,0.795,0.755,�k�k��,3.3,��
2018/10/12,04:10,0.765,1.139,0.810,1.435,1.032,0.456,0.797,0.754,�k�k��,3.2,�L
2018/10/12,04:20,0.765,1.141,0.810,1.434,1.032,0.456,0.797,0.754,�k,3.0,�L
2018/10/12,04:30,0.765,1.141,0.810,1.431,1.028,0.455,0.796,0.754,�k,1.9,�L
2018/10/12,04:40,0.763,1.137,0.807,1.431,1.030,0.456,0.793,0.754,�k�k��,1.4,�L
2018/10/12,04:50,0.764,1.137,0.807,1.431,1.027,0.456,0.792,0.752,�k�k��,2.0,�L
2018/10/12,05:00,0.763,1.138,0.810,1.432,1.030,0.456,0.791,0.752,�k�k��,2.3,�L
2018/10/12,05:10,0.762,1.134,0.809,1.429,1.023,0.456,0.791,0.751,�k�k��,1.5,�L
2018/10/12,05:20,0.763,1.135,0.809,1.426,1.024,0.457,0.790,0.750,�k�k��,1.5,�L
2018/10/12,05:30,0.765,1.135,0.809,1.426,1.026,0.456,0.792,0.751,�k�k��,1.9,�L
2018/10/12,05:40,0.764,1.133,0.805,1.426,1.025,0.455,0.792,0.750,�k�k��,1.5,��
2018/10/12,05:50,0.763,1.137,0.808,1.426,1.024,0.455,0.793,0.751,�k�k��,2.5,��
2018/10/12,06:00,0.763,1.134,0.810,1.428,1.027,0.455,0.792,0.752,�k�k��,2.5,�L
2018/10/12,06:10,0.763,1.134,0.808,1.426,1.027,0.457,0.789,0.751,�k�k��,2.0,�L
2018/10/12,06:20,0.763,1.134,0.807,1.424,1.023,0.457,0.790,0.751,���k��,2.0,�L
2018/10/12,06:30,0.761,1.131,0.805,1.423,1.023,0.455,0.789,0.750,�k,2.6,�L
2018/10/12,06:40,0.763,1.132,0.805,1.422,1.024,0.455,0.790,0.747,�k,3.2,�L
2018/10/12,06:50,0.764,1.130,0.807,1.425,1.024,0.455,0.790,0.749,�k�k��,3.6,�L
2018/10/12,07:00,0.761,1.134,0.806,1.419,1.024,0.455,0.790,0.750,�k,4.4,�L
2018/10/12,07:10,0.764,1.136,0.806,1.422,1.024,0.456,0.792,0.748,�k�k��,3.8,�L
2018/10/12,07:20,0.763,1.134,0.804,1.421,1.024,0.455,0.791,0.749,�k�k��,3.5,��
2018/10/12,07:30,0.764,1.135,0.805,1.422,1.026,0.455,0.788,0.752,�k��,3.2,��
2018/10/12,07:40,0.761,1.133,0.805,1.423,1.027,0.455,0.790,0.751,�k�k��,3.5,��
2018/10/12,07:50,0.762,1.134,0.806,1.423,1.028,0.454,0.792,0.751,�k�k��,2.8,��
2018/10/12,08:00,0.761,1.136,0.805,1.424,1.023,0.454,0.792,0.751,�k��,3.6,�L
2018/10/12,08:10,0.763,1.136,0.805,1.423,1.027,0.454,0.790,0.750,�k��,4.5,�L
2018/10/12,08:20,0.763,1.136,0.808,1.426,1.026,0.454,0.790,0.750,�k�k��,3.2,�L
2018/10/12,08:30,0.762,1.136,0.805,1.426,1.027,0.455,0.791,0.752,�k�k��,3.3,�L
2018/10/12,08:40,0.762,1.135,0.809,1.425,1.025,0.455,0.792,0.750,�k�k��,3.1,�L
2018/10/12,08:50,0.765,1.132,0.805,1.426,1.025,0.455,0.791,0.748,�k�k��,2.6,�L
2018/10/12,09:00,0.761,1.133,0.805,1.425,1.025,0.455,0.791,0.749,�k�k��,2.9,�L
2018/10/12,09:10,0.761,1.129,0.798,1.425,1.023,0.454,0.790,0.748,�k,2.2,�L
2018/10/12,09:20,0.760,1.128,0.796,1.424,1.024,0.454,0.791,0.747,�k�k��,2.9,�L
2018/10/12,09:30,0.761,1.129,0.795,1.427,1.023,0.455,0.789,0.748,�k�k��,4.8,�L
2018/10/12,09:40,0.760,1.126,0.805,1.424,1.023,0.453,0.789,0.749,�k�k��,6.2,�L
2018/10/12,09:50,0.760,1.122,0.805,1.424,1.021,0.454,0.791,0.748,�k,6.5,�L
2018/10/12,10:00,0.759,1.122,0.806,1.423,1.021,0.455,0.791,0.747,�k�k��,7.1,�L
2018/10/12,10:10,0.759,1.124,0.804,1.427,1.021,0.453,0.791,0.747,�k�k��,6.1,�L
2018/10/12,10:20,0.760,1.122,0.803,1.422,1.021,0.454,0.792,0.749,�k�k��,5.8,�L
2018/10/12,10:30,0.759,1.127,0.803,1.423,1.023,0.453,0.792,0.749,�k�k��,5.2,�L
2018/10/12,10:40,0.760,1.123,0.805,1.426,1.022,0.453,0.791,0.748,�k�k��,4.5,�L
2018/10/12,10:50,0.762,1.127,0.806,1.423,1.023,0.455,0.791,0.749,�k�k��,4.6,�L
2018/10/12,11:00,0.761,1.129,0.805,1.429,1.024,0.453,0.790,0.749,�k�k��,4.5,��
2018/10/12,11:10,0.760,1.110,0.805,1.426,1.024,0.455,0.791,0.750,�k�k��,5.6,��
2018/10/12,11:20,0.761,1.097,0.804,1.426,1.024,0.454,0.790,0.748,�k��,4.6,��
2018/10/12,11:30,0.763,1.098,0.806,1.425,1.024,0.454,0.792,0.751,�k�k��,3.6,��
2018/10/12,11:40,0.762,1.096,0.804,1.428,1.024,0.453,0.792,0.751,�k��,4.8,��
2018/10/12,11:50,0.763,1.129,0.805,1.426,1.023,0.451,0.790,0.752,�k��,4.2,��
2018/10/12,12:00,0.762,1.134,0.804,1.428,1.023,0.451,0.793,0.751,�k��,3.0,��
2018/10/12,12:10,0.761,1.133,0.803,1.427,1.022,0.452,0.792,0.750,�k�k��,2.6,��
2018/10/12,12:20,0.756,1.131,0.804,1.426,1.024,0.451,0.795,0.750,�k��,5.1,��
2018/10/12,12:30,0.758,1.132,0.805,1.428,1.024,0.453,0.793,0.750,�k��,7.6,��
2018/10/12,12:40,0.758,1.131,0.804,1.433,1.025,0.451,0.792,0.750,�k��,7.1,��
2018/10/12,12:50,0.760,1.132,0.805,1.430,1.024,0.452,0.793,0.750,���k��,6.1,��
2018/10/12,13:00,0.758,1.131,0.803,1.427,1.022,0.449,0.794,0.751,�k��,4.8,��
2018/10/12,13:10,0.760,1.132,0.804,1.432,1.025,0.451,0.793,0.750,�k��,4.7,��
2018/10/12,13:20,0.759,1.129,0.805,1.433,1.025,0.451,0.794,0.749,�k�k��,3.4,��
2018/10/12,13:30,0.754,1.133,0.806,1.433,1.026,0.452,0.793,0.751,�k�k��,5.0,��
2018/10/12,13:40,0.757,1.134,0.806,1.433,1.026,0.452,0.794,0.751,�k�k��,8.7,��
2018/10/12,13:50,0.760,1.133,0.805,1.434,1.028,0.451,0.795,0.752,�k�k��,8.8,��
2018/10/12,14:00,0.761,1.132,0.807,1.436,1.029,0.451,0.796,0.752,�k�k��,9.1,��
2018/10/12,14:10,0.760,1.135,0.805,1.434,1.029,0.451,0.795,0.752,�k�k��,7.2,��
2018/10/12,14:20,0.762,1.138,0.805,1.435,1.029,0.452,0.796,0.751,�k�k��,6.7,��
2018/10/12,14:30,0.761,1.140,0.807,1.434,1.030,0.451,0.797,0.751,�k�k��,5.8,��
2018/10/12,14:40,0.762,1.141,0.808,1.436,1.030,0.452,0.795,0.753,�k�k��,5.6,��
2018/10/12,14:50,0.764,1.143,0.808,1.436,1.030,0.453,0.796,0.752,���k��,9.2,��
2018/10/12,15:00,0.763,1.142,0.808,1.440,1.030,0.452,0.797,0.753,���k��,7.7,��
2018/10/12,15:10,0.764,1.143,0.808,1.438,1.031,0.450,0.797,0.753,�k��,7.1,��
2018/10/12,15:20,0.765,1.142,0.808,1.441,1.033,0.453,0.794,0.753,�k��,5.5,��
2018/10/12,15:30,0.764,1.143,0.809,1.442,1.031,0.452,0.797,0.753,�k��,4.5,��
2018/10/12,15:40,0.764,1.147,0.809,1.440,1.034,0.453,0.796,0.755,�k��,3.4,��
2018/10/12,15:50,0.764,1.144,0.808,1.442,1.031,0.452,0.797,0.755,�k��,4.4,��
2018/10/12,16:00,0.764,1.146,0.809,1.443,1.034,0.452,0.796,0.753,�k��,6.4,��
2018/10/12,16:10,0.764,1.146,0.810,1.444,1.032,0.453,0.796,0.756,�k��,5.3,��
2018/10/12,16:20,0.766,1.146,0.810,1.442,1.034,0.453,0.795,0.755,�k��,6.2,��
2018/10/12,16:30,0.763,1.148,0.809,1.442,1.034,0.454,0.795,0.756,�k��,5.7,��
2018/10/12,16:40,0.764,1.151,0.810,1.440,1.033,0.456,0.794,0.754,�k��,5.1,��
2018/10/12,16:50,0.763,1.153,0.808,1.442,1.032,0.453,0.794,0.755,�k�k��,4.6,��
2018/10/12,17:00,0.761,1.151,0.810,1.445,1.033,0.454,0.796,0.756,�k�k��,5.0,��
2018/10/12,17:10,0.763,1.152,0.808,1.443,1.035,0.455,0.797,0.756,�k�k��,5.0,��
2018/10/12,17:20,0.766,1.151,0.811,1.442,1.032,0.456,0.797,0.755,�k�k��,4.7,��
2018/10/12,17:30,0.765,1.150,0.811,1.445,1.036,0.455,0.796,0.756,�k,3.8,��
2018/10/12,17:40,0.766,1.151,0.812,1.443,1.036,0.455,0.798,0.757,�k�k��,5.0,��
2018/10/12,17:50,0.766,1.150,0.812,1.444,1.037,0.455,0.798,0.756,�k�k��,6.4,��
2018/10/12,18:00,0.768,1.151,0.812,1.443,1.038,0.455,0.797,0.756,�k�k��,6.3,��
2018/10/12,18:10,0.766,1.151,0.813,1.445,1.036,0.454,0.799,0.756,�k�k��,6.5,��
2018/10/12,18:20,0.769,1.154,0.812,1.445,1.038,0.456,0.797,0.757,�k�k��,5.8,��
2018/10/12,18:30,0.768,1.152,0.813,1.439,1.040,0.455,0.797,0.755,�k�k��,5.0,��
2018/10/12,18:40,0.767,1.154,0.813,1.448,1.035,0.455,0.797,0.756,�k�k��,3.9,��
2018/10/12,18:50,0.766,1.151,0.811,1.443,1.038,0.454,0.797,0.757,�k�k��,4.6,��
2018/10/12,19:00,0.767,1.154,0.812,1.445,1.035,0.454,0.796,0.755,�k�k��,4.3,��
2018/10/12,19:10,0.768,1.153,0.811,1.446,1.037,0.455,0.797,0.756,�k��,3.8,��
2018/10/12,19:20,0.767,1.154,0.814,1.443,1.039,0.455,0.799,0.756,�k�k��,4.8,��
2018/10/12,19:30,0.767,1.151,0.811,1.444,1.036,0.455,0.797,0.758,�k�k��,4.7,��
2018/10/12,19:40,0.766,1.151,0.814,1.447,1.038,0.454,0.798,0.758,�k��,4.9,��
2018/10/12,19:50,0.766,1.150,0.812,1.444,1.037,0.455,0.798,0.758,�k��,3.1,��
2018/10/12,20:00,0.766,1.152,0.813,1.445,1.038,0.455,0.796,0.758,�k��,3.0,��
2018/10/12,20:10,0.769,1.154,0.812,1.446,1.038,0.454,0.797,0.756,�k��,2.8,��
2018/10/12,20:20,0.766,1.154,0.811,1.446,1.038,0.455,0.797,0.756,�k��,2.8,��
2018/10/12,20:30,0.767,1.155,0.812,1.447,1.036,0.455,0.798,0.754,�k��,2.3,��
2018/10/12,20:40,0.768,1.153,0.814,1.444,1.038,0.455,0.798,0.756,���k��,2.3,��
2018/10/12,20:50,0.766,1.152,0.813,1.443,1.036,0.455,0.796,0.757,���k��,3.1,��
2018/10/12,21:00,0.767,1.154,0.813,1.444,1.037,0.455,0.797,0.756,���k��,4.0,��
2018/10/12,21:10,0.766,1.153,0.811,1.445,1.036,0.455,0.797,0.756,�k��,3.4,��
2018/10/12,21:20,0.768,1.151,0.811,1.446,1.037,0.455,0.799,0.757,�k��,3.2,��
2018/10/12,21:30,0.766,1.150,0.813,1.446,1.037,0.455,0.798,0.755,�k��,2.3,��
2018/10/12,21:40,0.765,1.151,0.811,1.445,1.037,0.455,0.800,0.755,�k��,3.2,��
2018/10/12,21:50,0.767,1.150,0.812,1.448,1.040,0.456,0.798,0.756,�k��,3.3,��
2018/10/12,22:00,0.767,1.154,0.812,1.445,1.038,0.456,0.798,0.754,���k��,3.8,��
2018/10/12,22:10,0.767,1.154,0.812,1.445,1.038,0.456,0.797,0.757,�k��,3.9,��
2018/10/12,22:20,0.766,1.152,0.813,1.446,1.037,0.454,0.797,0.755,���k��,3.7,��
2018/10/12,22:30,0.767,1.153,0.813,1.445,1.037,0.455,0.798,0.757,���k��,4.1,��
2018/10/12,22:40,0.766,1.154,0.813,1.444,1.038,0.453,0.797,0.757,�k��,5.6,��
2018/10/12,22:50,0.767,1.153,0.812,1.445,1.038,0.455,0.797,0.758,���k��,5.7,��
2018/10/12,23:00,0.767,1.156,0.813,1.447,1.037,0.455,0.797,0.757,���k��,4.5,��
2018/10/12,23:10,0.767,1.154,0.812,1.444,1.037,0.454,0.797,0.758,���k��,4.2,��
2018/10/12,23:20,0.766,1.150,0.813,1.446,1.039,0.455,0.797,0.758,���k��,3.6,��
2018/10/12,23:30,0.766,1.153,0.812,1.446,1.038,0.455,0.797,0.757,���k��,3.6,��
2018/10/12,23:40,0.766,1.154,0.813,1.444,1.036,0.456,0.796,0.755,�k��,4.5,��
2018/10/12,23:50,0.766,1.153,0.812,1.447,1.034,0.455,0.797,0.756,���k��,4.6,��
